Time,TemperatureF,DewpointF,PressureIn,WindDirection,WindDirectionDegrees,WindSpeedMPH,WindSpeedGustMPH,Humidity,HourlyPrecipIn,Conditions,Clouds,dailyrainin,SolarRadiationWatts/m^2,SoftwareType,DateUTC
2013-02-02 00:01:00,42.0,14.0,-100.00,ENE,73,1.0,6.0,32,0.00,,,0.00,0.000000,,2013-02-02 08:01:00,
2013-02-02 00:11:00,42.0,14.0,-100.00,ENE,73,1.0,6.0,32,0.00,,,0.00,0.000000,,2013-02-02 08:11:00,
2013-02-02 00:21:00,42.0,14.0,-100.00,ENE,73,1.0,6.0,32,0.00,,,0.00,0.000000,,2013-02-02 08:21:00,
2013-02-02 00:42:00,44.0,23.0,-100.00,East,90,1.0,7.0,43,0.00,,,0.00,0.000000,,2013-02-02 08:42:00,
2013-02-02 00:53:00,44.0,23.0,-100.00,East,90,1.0,7.0,43,0.00,,,0.00,0.000000,,2013-02-02 08:53:00,
2013-02-02 01:01:00,44.0,23.0,-100.00,East,90,1.0,7.0,43,0.00,,,0.00,0.000000,,2013-02-02 09:01:00,
2013-02-02 01:11:00,44.0,23.0,-100.00,East,90,1.0,7.0,43,0.00,,,0.00,0.000000,,2013-02-02 09:11:00,
2013-02-02 01:22:00,44.0,23.0,-100.00,East,90,1.0,7.0,43,0.00,,,0.00,0.000000,,2013-02-02 09:22:00,
2013-02-02 01:42:00,44.0,20.0,-100.00,ESE,107,0.0,4.0,38,0.00,,,0.00,0.000000,,2013-02-02 09:42:00,
2013-02-02 01:52:00,44.0,20.0,-100.00,ESE,107,0.0,4.0,38,0.00,,,0.00,0.000000,,2013-02-02 09:52:00,
2013-02-02 02:01:00,44.0,20.0,-100.00,ESE,107,0.0,4.0,38,0.00,,,0.00,0.000000,,2013-02-02 10:01:00,
2013-02-02 02:11:00,44.0,20.0,-100.00,ESE,107,0.0,4.0,38,0.00,,,0.00,0.000000,,2013-02-02 10:11:00,
2013-02-02 02:21:00,44.0,20.0,-100.00,ESE,107,0.0,4.0,38,0.00,,,0.00,0.000000,,2013-02-02 10:21:00,
2013-02-02 02:42:00,43.0,21.0,-100.00,ENE,72,0.0,7.0,41,0.00,,,0.00,0.000000,,2013-02-02 10:42:00,
2013-02-02 02:52:00,43.0,21.0,-100.00,ENE,72,0.0,7.0,41,0.00,,,0.00,0.000000,,2013-02-02 10:52:00,
2013-02-02 03:01:00,43.0,21.0,-100.00,ENE,72,0.0,7.0,41,0.00,,,0.00,0.000000,,2013-02-02 11:01:00,
2013-02-02 03:11:00,43.0,21.0,-100.00,ENE,72,0.0,7.0,41,0.00,,,0.00,0.000000,,2013-02-02 11:11:00,
2013-02-02 03:21:00,43.0,21.0,-100.00,ENE,72,0.0,7.0,41,0.00,,,0.00,0.000000,,2013-02-02 11:21:00,
2013-02-02 03:42:00,41.0,19.0,-100.00,SSE,151,0.0,4.0,41,0.00,,,0.00,0.000000,,2013-02-02 11:42:00,
2013-02-02 03:52:00,41.0,19.0,-100.00,SSE,151,0.0,4.0,41,0.00,,,0.00,0.000000,,2013-02-02 11:52:00,
2013-02-02 04:01:00,41.0,19.0,-100.00,SSE,151,0.0,4.0,41,0.00,,,0.00,0.000000,,2013-02-02 12:01:00,
2013-02-02 04:11:00,41.0,19.0,-100.00,SSE,151,0.0,4.0,41,0.00,,,0.00,0.000000,,2013-02-02 12:11:00,
2013-02-02 04:22:00,41.0,19.0,-100.00,SSE,151,0.0,4.0,41,0.00,,,0.00,0.000000,,2013-02-02 12:22:00,
2013-02-02 04:42:00,41.0,17.0,-100.00,SE,135,0.0,3.0,37,0.00,,,0.00,0.000000,,2013-02-02 12:42:00,
2013-02-02 04:52:00,41.0,17.0,-100.00,SE,135,0.0,3.0,37,0.00,,,0.00,0.000000,,2013-02-02 12:52:00,
2013-02-02 05:02:00,41.0,17.0,-100.00,SE,135,0.0,3.0,37,0.00,,,0.00,0.000000,,2013-02-02 13:02:00,
2013-02-02 05:11:00,41.0,17.0,-100.00,SE,135,0.0,3.0,37,0.00,,,0.00,0.000000,,2013-02-02 13:11:00,
2013-02-02 05:21:00,41.0,17.0,-100.00,SE,135,0.0,3.0,37,0.00,,,0.00,0.000000,,2013-02-02 13:21:00,
2013-02-02 05:42:00,40.0,16.0,-100.00,SE,140,0.0,0.0,38,0.00,,,0.00,0.000000,,2013-02-02 13:42:00,
2013-02-02 05:52:00,40.0,16.0,-100.00,SE,140,0.0,0.0,38,0.00,,,0.00,0.000000,,2013-02-02 13:52:00,
2013-02-02 06:02:00,40.0,16.0,-100.00,SE,140,0.0,0.0,38,0.00,,,0.00,0.000000,,2013-02-02 14:02:00,
2013-02-02 06:11:00,40.0,16.0,-100.00,SE,140,0.0,0.0,38,0.00,,,0.00,0.000000,,2013-02-02 14:11:00,
2013-02-02 06:21:00,40.0,16.0,-100.00,SE,140,0.0,0.0,38,0.00,,,0.00,0.000000,,2013-02-02 14:21:00,
2013-02-02 06:42:00,40.0,17.0,-100.00,ENE,69,0.0,5.0,39,0.00,,,0.00,0.000000,,2013-02-02 14:42:00,
2013-02-02 06:52:00,40.0,17.0,-100.00,ENE,69,0.0,5.0,39,0.00,,,0.00,0.000000,,2013-02-02 14:52:00,
2013-02-02 07:02:00,40.0,17.0,-100.00,ENE,69,0.0,5.0,39,0.00,,,0.00,0.000000,,2013-02-02 15:02:00,
2013-02-02 07:11:00,40.0,17.0,-100.00,ENE,69,0.0,5.0,39,0.00,,,0.00,0.000000,,2013-02-02 15:11:00,
2013-02-02 07:21:00,40.0,17.0,-100.00,ENE,69,0.0,5.0,39,0.00,,,0.00,0.000000,,2013-02-02 15:21:00,
2013-02-02 07:42:00,41.0,18.0,-100.00,SE,131,0.0,6.0,39,0.00,,,0.00,21.000000,,2013-02-02 15:42:00,
2013-02-02 07:52:00,41.0,18.0,-100.00,SE,131,0.0,6.0,39,0.00,,,0.00,21.000000,,2013-02-02 15:52:00,
2013-02-02 08:02:00,41.0,18.0,-100.00,SE,131,0.0,6.0,39,0.00,,,0.00,21.000000,,2013-02-02 16:02:00,
2013-02-02 08:11:00,41.0,18.0,-100.00,SE,131,0.0,6.0,39,0.00,,,0.00,21.000000,,2013-02-02 16:11:00,
2013-02-02 08:21:00,41.0,18.0,-100.00,SE,131,0.0,6.0,39,0.00,,,0.00,21.000000,,2013-02-02 16:21:00,
2013-02-02 08:42:00,48.0,19.0,-100.00,ENE,57,0.0,7.0,31,0.00,,,0.00,77.000000,,2013-02-02 16:42:00,
2013-02-02 08:52:00,48.0,19.0,-100.00,ENE,57,0.0,7.0,31,0.00,,,0.00,77.000000,,2013-02-02 16:52:00,
2013-02-02 09:02:00,48.0,19.0,-100.00,ENE,57,0.0,7.0,31,0.00,,,0.00,77.000000,,2013-02-02 17:02:00,
2013-02-02 09:11:00,48.0,19.0,-100.00,ENE,57,0.0,7.0,31,0.00,,,0.00,77.000000,,2013-02-02 17:11:00,
2013-02-02 09:21:00,48.0,19.0,-100.00,ENE,57,0.0,7.0,31,0.00,,,0.00,77.000000,,2013-02-02 17:21:00,
2013-02-02 09:42:00,53.0,21.0,-100.00,East,79,1.0,10.0,28,0.00,,,0.00,238.000000,,2013-02-02 17:42:00,
2013-02-02 09:52:00,53.0,21.0,-100.00,East,79,1.0,10.0,28,0.00,,,0.00,238.000000,,2013-02-02 17:52:00,
2013-02-02 10:02:00,53.0,21.0,-100.00,East,79,1.0,10.0,28,0.00,,,0.00,238.000000,,2013-02-02 18:02:00,
2013-02-02 10:11:00,53.0,21.0,-100.00,East,79,1.0,10.0,28,0.00,,,0.00,238.000000,,2013-02-02 18:11:00,
2013-02-02 10:21:00,53.0,21.0,-100.00,East,79,1.0,10.0,28,0.00,,,0.00,238.000000,,2013-02-02 18:21:00,
2013-02-02 10:42:00,59.0,26.0,-100.00,East,82,3.0,9.0,28,0.00,,,0.00,668.000000,,2013-02-02 18:42:00,
2013-02-02 10:52:00,59.0,26.0,-100.00,East,82,3.0,9.0,28,0.00,,,0.00,668.000000,,2013-02-02 18:52:00,
2013-02-02 11:01:00,59.0,26.0,-100.00,East,82,3.0,9.0,28,0.00,,,0.00,668.000000,,2013-02-02 19:01:00,
2013-02-02 11:11:00,59.0,26.0,-100.00,East,82,3.0,9.0,28,0.00,,,0.00,668.000000,,2013-02-02 19:11:00,
2013-02-02 11:21:00,59.0,26.0,-100.00,East,82,3.0,9.0,28,0.00,,,0.00,668.000000,,2013-02-02 19:21:00,
2013-02-02 11:42:00,58.0,29.0,-100.00,East,99,2.0,9.0,33,0.00,,,0.00,593.000000,,2013-02-02 19:42:00,
2013-02-02 11:52:00,58.0,29.0,-100.00,East,99,2.0,9.0,33,0.00,,,0.00,593.000000,,2013-02-02 19:52:00,
2013-02-02 12:01:00,58.0,29.0,-100.00,East,99,2.0,9.0,33,0.00,,,0.00,593.000000,,2013-02-02 20:01:00,
2013-02-02 12:11:00,58.0,29.0,-100.00,East,99,2.0,9.0,33,0.00,,,0.00,593.000000,,2013-02-02 20:11:00,
2013-02-02 12:21:00,58.0,29.0,-100.00,East,99,2.0,9.0,33,0.00,,,0.00,593.000000,,2013-02-02 20:21:00,
2013-02-02 12:42:00,58.0,29.0,-100.00,SSW,209,2.0,11.0,33,0.00,,,0.00,699.000000,,2013-02-02 20:42:00,
2013-02-02 12:52:00,58.0,29.0,-100.00,SSW,209,2.0,11.0,33,0.00,,,0.00,699.000000,,2013-02-02 20:52:00,
2013-02-02 13:02:00,58.0,29.0,-100.00,SSW,209,2.0,11.0,33,0.00,,,0.00,699.000000,,2013-02-02 21:02:00,
2013-02-02 13:11:00,58.0,29.0,-100.00,SSW,209,2.0,11.0,33,0.00,,,0.00,699.000000,,2013-02-02 21:11:00,
2013-02-02 13:21:00,58.0,29.0,-100.00,SSW,209,2.0,11.0,33,0.00,,,0.00,699.000000,,2013-02-02 21:21:00,
2013-02-02 13:42:00,59.0,28.0,-100.00,ENE,60,4.0,9.0,31,0.00,,,0.00,776.000000,,2013-02-02 21:42:00,
2013-02-02 13:52:00,59.0,28.0,-100.00,ENE,60,4.0,9.0,31,0.00,,,0.00,776.000000,,2013-02-02 21:52:00,
2013-02-02 14:02:00,59.0,28.0,-100.00,ENE,60,4.0,9.0,31,0.00,,,0.00,776.000000,,2013-02-02 22:02:00,
2013-02-02 14:11:00,59.0,28.0,-100.00,ENE,60,4.0,9.0,31,0.00,,,0.00,776.000000,,2013-02-02 22:11:00,
2013-02-02 14:21:00,59.0,28.0,-100.00,ENE,60,4.0,9.0,31,0.00,,,0.00,776.000000,,2013-02-02 22:21:00,
2013-02-02 14:42:00,55.0,26.0,-100.00,SSE,155,0.0,9.0,33,0.00,,,0.00,407.000000,,2013-02-02 22:42:00,
2013-02-02 14:52:00,55.0,26.0,-100.00,SSE,155,0.0,9.0,33,0.00,,,0.00,407.000000,,2013-02-02 22:52:00,
2013-02-02 15:01:00,55.0,26.0,-100.00,SSE,155,0.0,9.0,33,0.00,,,0.00,407.000000,,2013-02-02 23:01:00,
2013-02-02 15:11:00,55.0,26.0,-100.00,SSE,155,0.0,9.0,33,0.00,,,0.00,407.000000,,2013-02-02 23:11:00,
2013-02-02 15:21:00,55.0,26.0,-100.00,SSE,155,0.0,9.0,33,0.00,,,0.00,407.000000,,2013-02-02 23:21:00,
2013-02-02 15:42:00,56.0,27.0,-100.00,WNW,292,0.0,5.0,33,0.00,,,0.00,212.000000,,2013-02-02 23:42:00,
2013-02-02 15:52:00,56.0,27.0,-100.00,WNW,292,0.0,5.0,33,0.00,,,0.00,212.000000,,2013-02-02 23:52:00,
2013-02-02 16:01:00,56.0,27.0,-100.00,WNW,292,0.0,5.0,33,0.00,,,0.00,212.000000,,2013-02-03 00:01:00,
2013-02-02 16:11:00,56.0,27.0,-100.00,WNW,292,0.0,5.0,33,0.00,,,0.00,212.000000,,2013-02-03 00:11:00,
2013-02-02 16:21:00,56.0,27.0,-100.00,WNW,292,0.0,5.0,33,0.00,,,0.00,212.000000,,2013-02-03 00:21:00,
2013-02-02 16:42:00,52.0,28.0,-100.00,NW,317,0.0,3.0,40,0.00,,,0.00,71.000000,,2013-02-03 00:42:00,
2013-02-02 16:52:00,52.0,28.0,-100.00,NW,317,0.0,3.0,40,0.00,,,0.00,71.000000,,2013-02-03 00:52:00,
2013-02-02 17:02:00,52.0,28.0,-100.00,NW,317,0.0,3.0,40,0.00,,,0.00,71.000000,,2013-02-03 01:02:00,
2013-02-02 17:11:00,52.0,28.0,-100.00,NW,317,0.0,3.0,40,0.00,,,0.00,71.000000,,2013-02-03 01:11:00,
2013-02-02 17:21:00,52.0,28.0,-100.00,NW,317,0.0,3.0,40,0.00,,,0.00,71.000000,,2013-02-03 01:21:00,
2013-02-02 17:42:00,50.0,30.0,-100.00,NE,42,0.0,0.0,46,0.00,,,0.00,27.000000,,2013-02-03 01:42:00,
2013-02-02 17:52:00,50.0,30.0,-100.00,NE,42,0.0,0.0,46,0.00,,,0.00,27.000000,,2013-02-03 01:52:00,
2013-02-02 18:01:00,50.0,30.0,-100.00,NE,42,0.0,0.0,46,0.00,,,0.00,27.000000,,2013-02-03 02:01:00,
2013-02-02 18:11:00,50.0,30.0,-100.00,NE,42,0.0,0.0,46,0.00,,,0.00,27.000000,,2013-02-03 02:11:00,
2013-02-02 18:21:00,50.0,30.0,-100.00,NE,42,0.0,0.0,46,0.00,,,0.00,27.000000,,2013-02-03 02:21:00,
2013-02-02 18:42:00,46.0,29.0,-100.00,SE,133,0.0,0.0,51,0.00,,,0.00,0.000000,,2013-02-03 02:42:00,
2013-02-02 18:52:00,46.0,29.0,-100.00,SE,133,0.0,0.0,51,0.00,,,0.00,0.000000,,2013-02-03 02:52:00,
2013-02-02 19:02:00,46.0,29.0,-100.00,SE,133,0.0,0.0,51,0.00,,,0.00,0.000000,,2013-02-03 03:02:00,
2013-02-02 19:11:00,46.0,29.0,-100.00,SE,133,0.0,0.0,51,0.00,,,0.00,0.000000,,2013-02-03 03:11:00,
2013-02-02 19:21:00,46.0,29.0,-100.00,SE,133,0.0,0.0,51,0.00,,,0.00,0.000000,,2013-02-03 03:21:00,
2013-02-02 19:42:00,47.0,31.0,-100.00,ENE,72,0.0,0.0,54,0.00,,,0.00,0.000000,,2013-02-03 03:42:00,
2013-02-02 19:52:00,47.0,31.0,-100.00,ENE,72,0.0,0.0,54,0.00,,,0.00,0.000000,,2013-02-03 03:52:00,
2013-02-02 20:01:00,47.0,31.0,-100.00,ENE,72,0.0,0.0,54,0.00,,,0.00,0.000000,,2013-02-03 04:01:00,
2013-02-02 20:11:00,47.0,31.0,-100.00,ENE,72,0.0,0.0,54,0.00,,,0.00,0.000000,,2013-02-03 04:11:00,
2013-02-02 20:21:00,47.0,31.0,-100.00,ENE,72,0.0,0.0,54,0.00,,,0.00,0.000000,,2013-02-03 04:21:00,
2013-02-02 20:42:00,47.0,31.0,-100.00,WSW,239,0.0,5.0,53,0.00,,,0.00,0.000000,,2013-02-03 04:42:00,
2013-02-02 20:52:00,47.0,31.0,-100.00,WSW,239,0.0,5.0,53,0.00,,,0.00,0.000000,,2013-02-03 04:52:00,
2013-02-02 21:03:00,47.0,31.0,-100.00,WSW,239,0.0,5.0,53,0.00,,,0.00,0.000000,,2013-02-03 05:03:00,
2013-02-02 21:11:00,47.0,31.0,-100.00,WSW,239,0.0,5.0,53,0.00,,,0.00,0.000000,,2013-02-03 05:11:00,
2013-02-02 21:22:00,47.0,31.0,-100.00,WSW,239,0.0,5.0,53,0.00,,,0.00,0.000000,,2013-02-03 05:22:00,
2013-02-02 21:42:00,47.0,32.0,-100.00,NE,41,0.0,3.0,55,0.00,,,0.00,0.000000,,2013-02-03 05:42:00,
2013-02-02 21:52:00,47.0,32.0,-100.00,NE,41,0.0,3.0,55,0.00,,,0.00,0.000000,,2013-02-03 05:52:00,
2013-02-02 22:02:00,47.0,32.0,-100.00,NE,41,0.0,3.0,55,0.00,,,0.00,0.000000,,2013-02-03 06:02:00,
2013-02-02 22:11:00,47.0,32.0,-100.00,NE,41,0.0,3.0,55,0.00,,,0.00,0.000000,,2013-02-03 06:11:00,
2013-02-02 22:21:00,47.0,32.0,-100.00,NE,41,0.0,3.0,55,0.00,,,0.00,0.000000,,2013-02-03 06:21:00,
2013-02-02 22:42:00,44.0,31.0,-100.00,SE,129,0.0,0.0,59,0.00,,,0.00,0.000000,,2013-02-03 06:42:00,
2013-02-02 22:52:00,44.0,31.0,-100.00,SE,129,0.0,0.0,59,0.00,,,0.00,0.000000,,2013-02-03 06:52:00,
2013-02-02 23:01:00,44.0,31.0,-100.00,SE,129,0.0,0.0,59,0.00,,,0.00,0.000000,,2013-02-03 07:01:00,
2013-02-02 23:11:00,44.0,31.0,-100.00,SE,129,0.0,0.0,59,0.00,,,0.00,0.000000,,2013-02-03 07:11:00,
2013-02-02 23:21:00,44.0,31.0,-100.00,SE,129,0.0,0.0,59,0.00,,,0.00,0.000000,,2013-02-03 07:21:00,
2013-02-02 23:42:00,43.0,32.0,-100.00,ESE,109,0.0,0.0,65,0.00,,,0.00,0.000000,,2013-02-03 07:42:00,
2013-02-02 23:52:00,43.0,32.0,-100.00,ESE,109,0.0,0.0,65,0.00,,,0.00,0.000000,,2013-02-03 07:52:00,